TimeEDT,TemperatureF,Dew PointF,Humidity,Sea Level PressureIn,VisibilityMPH,Wind Direction,Wind SpeedMPH,Gust SpeedMPH,PrecipitationIn,Events,Conditions,WindDirDegrees,DateUTC
12:53 AM,71.1,66.0,84,29.79,6.0,SSW,4.6,-,N/A,,Haze,200,2013-07-23 04:53:00
1:53 AM,72.0,66.0,81,29.78,6.0,SW,6.9,-,N/A,,Haze,220,2013-07-23 05:53:00
2:53 AM,71.1,66.0,84,29.76,6.0,SW,6.9,-,N/A,,Haze,230,2013-07-23 06:53:00
3:53 AM,71.1,66.0,84,29.73,5.0,SW,9.2,-,N/A,,Haze,220,2013-07-23 07:53:00
4:53 AM,70.0,64.9,84,29.72,4.0,SSW,5.8,-,N/A,,Haze,200,2013-07-23 08:53:00
5:53 AM,71.1,64.9,81,29.72,7.0,SW,9.2,-,N/A,,Partly Cloudy,220,2013-07-23 09:53:00
6:53 AM,70.0,64.0,81,29.73,6.0,SSW,6.9,-,N/A,,Haze,210,2013-07-23 10:53:00
7:53 AM,73.0,66.0,79,29.72,7.0,SW,10.4,-,N/A,,Scattered Clouds,230,2013-07-23 11:53:00
8:53 AM,73.9,66.9,79,29.73,7.0,SSW,4.6,-,N/A,,Scattered Clouds,200,2013-07-23 12:53:00
9:53 AM,72.0,66.0,81,29.70,4.0,South,6.9,-,0.01,,Haze,180,2013-07-23 13:53:00
10:26 AM,73.4,68.0,83,29.73,7.0,SSW,6.9,-,N/A,,Mostly Cloudy,200,2013-07-23 14:26:00
10:53 AM,75.0,68.0,79,29.72,8.0,SSW,8.1,-,N/A,,Mostly Cloudy,210,2013-07-23 14:53:00
11:53 AM,81.0,68.0,65,29.71,10.0,SW,9.2,-,N/A,,Clear,220,2013-07-23 15:53:00
12:53 PM,84.9,68.0,57,29.69,10.0,SSW,12.7,17.3,N/A,,Clear,210,2013-07-23 16:53:00
1:53 PM,86.0,64.0,48,29.68,10.0,WSW,15.0,19.6,N/A,,Scattered Clouds,240,2013-07-23 17:53:00
2:53 PM,84.9,66.0,53,29.67,10.0,WSW,12.7,-,N/A,,Mostly Cloudy,250,2013-07-23 18:53:00
3:15 PM,73.4,64.4,73,29.73,4.0,NW,15.0,28.8,0.04,Rain,Light Rain,310,2013-07-23 19:15:00
3:18 PM,73.4,64.4,73,29.72,1.5,NNW,11.5,24.2,0.13,Rain,Heavy Rain,330,2013-07-23 19:18:00
3:26 PM,71.6,66.2,83,29.73,0.5,NNW,15.0,24.2,0.38,Rain,Heavy Rain,330,2013-07-23 19:26:00
3:41 PM,73.4,66.2,78,29.73,2.5,NNE,6.9,-,0.59,Rain,Light Rain,20,2013-07-23 19:41:00
3:45 PM,73.4,68.0,83,29.73,9.0,North,8.1,-,0.59,Rain,Light Rain,360,2013-07-23 19:45:00
3:53 PM,73.9,66.9,79,29.71,10.0,North,9.2,-,0.59,,Overcast,350,2013-07-23 19:53:00
4:53 PM,78.1,68.0,71,29.71,10.0,North,10.4,-,N/A,,Mostly Cloudy,360,2013-07-23 20:53:00
5:53 PM,79.0,64.9,62,29.72,10.0,NNW,11.5,-,N/A,,Mostly Cloudy,330,2013-07-23 21:53:00
6:53 PM,78.1,63.0,60,29.72,10.0,NW,11.5,20.7,N/A,,Partly Cloudy,320,2013-07-23 22:53:00
7:53 PM,75.9,62.1,62,29.73,10.0,NNW,11.5,-,N/A,,Clear,340,2013-07-23 23:53:00
8:53 PM,72.0,55.9,57,29.76,10.0,North,18.4,-,N/A,,Clear,350,2013-07-24 00:53:00
9:53 PM,69.1,54.0,58,29.80,10.0,North,16.1,24.2,N/A,,Clear,350,2013-07-24 01:53:00
10:53 PM,64.9,52.0,63,29.85,10.0,North,16.1,25.3,N/A,,Clear,360,2013-07-24 02:53:00
11:53 PM,63.0,51.1,65,29.88,10.0,North,8.1,-,N/A,,Scattered Clouds,360,2013-07-24 03:53:00